CZ-6A DEB, 60895

Orbit data source: Space-Track

CZ-6A DEB, 60895 is space debris in LEO originally from a launch on Tue, 06 Aug 2024 UTC launched from the Taiyaun Space Center, China (TSC). Debris objects in space refer to the collection of defunct objects orbiting the Earth. Examples of debris include non-operational satellites, rocket bodies, and fragments generated from explosions, collisions, or faulty payload assembly.

Loading next visibility...
Identifier
60895, 2024-140LA
Orbit
LEO
Country
Flag of CNCN / PRC
Related business
Manufacturer
SAST
Mission
Spacecraft
Bus & Motor
Unknown
Mass
Unknown
Launch date (UTC)
2024-08-06 (2 years ago)
Launch vehicle
Unknown
Launch site
Taiyaun Space Center, China (TSC)
Object type
Payload
Rocket body
Debris
Shape & HBR
Unknown shape, 0.1 m
Radar Cross Section
Medium (>0.1 m² and <1 m²)

Expand to show TLE details & history
Last TLE update: 11 hours ago

TLE from 11 hours ago
0 CZ-6A DEB
1 60895U 24140LA  26171.38762808  .00001176  00000-0  51787-3 0  9994
2 60895  89.3539 302.6119 0051745 174.1145 186.0666 14.22142618 95192
Epoch: 2026-06-20T09:18Z
TLE epoch observation values (Epoch: 2026-06-20T09:18:11.066Z)
Latitude
-0°
Longitude
-105.53718°
Altitude
858.212 km
Speed
7.404 km/s
True Right ascension
20h 10m 26s
True Declination
0° 00' 00"
Sunlit
Object was in full shadow at epoch
Visualization orbit readout
Latitude
Unknown
Longitude
Unknown
Altitude
Unknown
Speed
Unknown
Apparent Right ascension
Unknown
Apparent Declination
Unknown
Sunlit
N/A
Visualization observer readout
Local Sidereal Time
07:20:31
Azimuth
Unknown
Elevation
Unknown
Doppler factor
Unknown
Orbital elements
Apogee altitude
852.283 km
Perigee altitude
777.841 km
Semi-major axis
7,193.199 km
Eccentricity
0.00517
Inclination
89.3539°
RAAN
302.6119°
Arg. of periapsis
174.1145°
True anomaly
186.00433°
Mean anomaly
186.0666°
Eccentric anomaly
186.03543°
Mean motion
3.55762 °/min
Orbital period
101.19 mins
BSTAR
0.00051787
Loading maneuver chart data...
Computing Atmospheric mass density...
Loading historical data...
Loading historical data...
Loading historical data...
Loading historical data...
Loading historical data...
Loading historical data...
Loading historical data...

Documentation

Showing up to 5 results
|